DW4669 Weather Reports


Display with metric or nautical units.
time (UTC)temp
F
wind
direction
speed
MPH
gust
MPH
rain 1hr
in
rain 24hr
in
rain mn
in
humidity
%
barometer
mb
20260906212018 75 328 1.0 5.0 0.00 0.00 0.00 60 1015.4
20260906211534 75 0 1.0 4.0 0.00 0.00 0.00 59 1015.3
20260906211016 75 0 0.0 3.0 0.00 0.00 0.00 62 1015.2
20260906210519 75 0 0.0 8.0 0.00 0.00 0.00 62 1015.2
20260906210036 75 0 1.0 8.0 0.00 0.00 0.00 62 1015.1
20260906205521 75 316 1.0 8.0 0.00 0.00 0.00 63 1015.0
20260906205015 75 309 0.0 4.0 0.00 0.00 0.00 61 1015.1
20260906204535 75 0 0.0 5.0 0.00 0.00 0.00 62 1015.0
20260906204018 75 0 0.0 5.0 0.00 0.00 0.00 59 1014.9
20260906203518 75 321 1.0 6.0 0.00 0.00 0.00 64 1015.0
20260906203040 75 0 1.0 8.0 0.00 0.00 0.00 61 1015.0
20260906202519 75 313 2.0 8.0 0.00 0.00 0.00 60 1015.0
20260906202022 75 0 1.0 7.0 0.00 0.00 0.00 62 1015.0
20260906201536 75 340 0.0 6.0 0.00 0.00 0.00 63 1015.0
20260906201019 75 270 0.0 6.0 0.00 0.00 0.00 61 1015.0
20260906200519 75 320 1.0 7.0 0.00 0.00 0.00 60 1015.0
20260906200035 76 0 3.0 7.0 0.00 0.00 0.00 61 1015.0
20260906195521 76 0 0.0 2.0 0.00 0.00 0.00 65 1014.9
20260906195018 75 0 0.0 4.0 0.00 0.00 0.00 62 1014.9
20260906194534 75 0 0.0 5.0 0.00 0.00 0.00 66 1014.9
20260906194017 74 0 1.0 5.0 0.00 0.00 0.00 63 1014.9
20260906193518 74 0 1.0 6.0 0.00 0.00 0.00 62 1014.9
20260906193035 73 304 3.0 10.0 0.00 0.00 0.00 64 1014.9
20260906192518 74 326 3.0 10.0 0.00 0.00 0.00 63 1014.9
20260906192018 74 323 3.0 10.0 0.00 0.00 0.00 62 1014.9
20260906191534 74 0 0.0 7.0 0.00 0.00 0.00 66 1014.8
20260906191019 74 23 4.0 10.0 0.00 0.00 0.00 64 1014.9
20260906190516 74 320 3.0 10.0 0.00 0.00 0.00 64 1014.9
20260906190040 73 0 0.0 4.0 0.00 0.00 0.00 69 1015.0
20260906185516 73 0 0.0 5.0 0.00 0.00 0.00 68 1014.9
20260906185015 73 319 1.0 8.0 0.00 0.00 0.00 69 1015.0
20260906184533 74 314 2.0 8.0 0.00 0.00 0.00 67 1015.0
20260906184022 73 0 0.0 6.0 0.00 0.00 0.00 68 1015.0
20260906183519 74 333 2.0 6.0 0.00 0.00 0.00 65 1015.0
20260906183103 75 0 0.0 3.0 0.00 0.00 0.00 73 1015.0
20260906182517 74 176 1.0 4.0 0.00 0.00 0.00 67 1015.0
20260906182020 74 0 0.0 4.0 0.00 0.00 0.00 70 1015.1
20260906181535 74 0 0.0 4.0 0.00 0.00 0.00 66 1015.1
20260906181018 74 0 0.0 4.0 0.00 0.00 0.00 69 1015.1
20260906180516 74 290 0.0 3.0 0.00 0.00 0.00 68 1015.1
20260906180044 74 0 1.0 4.0 0.00 0.00 0.00 69 1015.1
20260906175519 74 0 0.0 4.0 0.00 0.00 0.00 71 1015.2
20260906175041 73 0 0.0 5.0 0.00 0.00 0.00 71 1015.2
20260906174532 73 342 0.0 6.0 0.00 0.00 0.00 70 1015.1
20260906174018 72 302 0.0 6.0 0.00 0.00 0.00 72 1015.2
20260906173519 72 321 0.0 7.0 0.00 0.00 0.00 71 1015.4
20260906173039 73 126 0.0 7.0 0.00 0.00 0.00 72 1015.4
20260906172519 73 144 1.0 7.0 0.00 0.00 0.00 70 1015.4
20260906172019 73 0 0.0 5.0 0.00 0.00 0.00 70 1015.4
20260906171538 73 169 0.0 5.0 0.00 0.00 0.00 70 1015.4
20260906171018 73 0 1.0 5.0 0.00 0.00 0.00 73 1015.5
20260906170517 73 319 1.0 5.0 0.00 0.00 0.00 71 1015.7
20260906170040 73 0 0.0 9.0 0.00 0.00 0.00 70 1015.6
20260906165518 72 0 1.0 9.0 0.00 0.00 0.00 73 1015.6
20260906165020 72 0 0.0 8.0 0.00 0.00 0.00 76 1015.7
20260906164535 72 0 0.0 11.0 0.00 0.00 0.00 75 1015.6
20260906164019 72 294 3.0 11.0 0.00 0.00 0.00 71 1015.6
20260906163519 72 300 4.0 11.0 0.00 0.00 0.00 70 1015.7
20260906163037 71 0 0.0 5.0 0.00 0.00 0.00 74 1015.7
20260906162520 71 0 1.0 5.0 0.00 0.00 0.00 78 1015.7
20260906162015 71 0 0.0 5.0 0.00 0.00 0.00 78 1015.7
20260906161536 71 0 0.0 5.0 0.00 0.00 0.00 74 1015.7
20260906161015 72 0 1.0 6.0 0.00 0.00 0.00 79 1015.7
20260906160517 72 315 3.0 6.0 0.00 0.00 0.00 77 1015.8
20260906160035 72 327 0.0 2.0 0.00 0.00 0.00 78 1015.7
20260906155519 71 0 0.0 2.0 0.00 0.00 0.00 77 1015.7
20260906155020 70 0 0.0 1.0 0.00 0.00 0.00 81 1015.9
20260906154535 69 0 0.0 2.0 0.00 0.00 0.00 79 1016.0
20260906154017 69 0 0.0 9.0 0.00 0.00 0.00 80 1016.1
20260906153518 69 0 2.0 9.0 0.00 0.00 0.00 81 1015.9
20260906153034 70 303 1.0 8.0 0.00 0.00 0.00 78 1016.0
20260906152516 69 328 2.0 12.0 0.00 0.00 0.00 82 1016.0
20260906152018 69 0 2.0 12.0 0.00 0.00 0.00 81 1015.9
20260906151537 69 311 2.0 9.0 0.00 0.00 0.00 81 1016.0
20260906151019 69 319 1.0 4.0 0.00 0.00 0.00 83 1016.0
20260906150515 68 313 1.0 4.0 0.00 0.00 0.00 84 1016.0
20260906150042 68 0 0.0 3.0 0.00 0.00 0.00 84 1016.0
20260906145519 68 0 0.0 3.0 0.00 0.00 0.00 83 1016.1
20260906145018 68 0 0.0 0.0 0.00 0.00 0.00 84 1016.1
20260906144535 68 0 0.0 4.0 0.00 0.00 0.00 84 1016.1
20260906144016 67 0 0.0 6.0 0.00 0.00 0.00 85 1016.0
20260906143518 67 0 1.0 10.0 0.00 0.00 0.00 84 1016.0
20260906143037 67 352 4.0 10.0 0.00 0.00 0.00 83 1016.0
20260906142517 67 295 2.0 7.0 0.00 0.00 0.00 85 1015.9
20260906142018 66 0 3.0 7.0 0.00 0.00 0.00 86 1015.8
20260906141538 66 0 1.0 5.0 0.00 0.00 0.00 86 1015.9
20260906141017 66 313 1.0 8.0 0.00 0.00 0.00 87 1015.8
20260906140522 66 304 0.0 8.0 0.00 0.00 0.00 87 1015.8
20260906140039 66 329 3.0 7.0 0.00 0.00 0.00 86 1015.8
20260906135520 66 342 0.0 4.0 0.00 0.00 0.00 88 1015.8
20260906135018 66 0 0.0 8.0 0.00 0.00 0.00 88 1015.8
20260906134539 65 0 1.0 8.0 0.00 0.00 0.00 88 1015.7
20260906134018 65 322 3.0 6.0 0.00 0.00 0.00 88 1015.7
20260906133515 65 0 0.0 3.0 0.00 0.00 0.00 89 1015.6
20260906133036 65 0 0.0 1.0 0.00 0.00 0.00 92 1015.4
20260906132521 64 0 0.0 2.0 0.00 0.00 0.00 93 1015.4
20260906132015 64 308 0.0 3.0 0.00 0.00 0.00 94 1015.3
20260906131537 63 0 0.0 4.0 0.00 0.00 0.00 95 1015.4
20260906131023 62 0 0.0 4.0 0.00 0.00 0.00 95 1015.4
20260906130518 62 323 0.0 4.0 0.00 0.00 0.00 96 1015.5
20260906130037 62 0 0.0 1.0 0.00 0.00 0.00 97 1015.6
20260906125518 62 0 0.0 4.0 0.00 0.00 0.00 97 1015.6
20260906125017 62 0 0.0 4.0 0.00 0.00 0.00 98 1015.5
20260906124534 62 0 0.0 1.0 0.00 0.00 0.00 98 1015.4
20260906124016 61 0 0.0 2.0 0.00 0.00 0.00 98 1015.4
20260906123516 61 0 0.0 3.0 0.00 0.00 0.00 98 1015.4
20260906123041 61 0 0.0 3.0 0.00 0.00 0.00 98 1015.5
20260906122517 61 0 0.0 1.0 0.00 0.00 0.00 98 1015.4
20260906122017 60 0 0.0 1.0 0.00 0.00 0.00 98 1015.4
20260906121542 59 0 0.0 1.0 0.00 0.00 0.00 98 1015.3
20260906121019 59 0 0.0 0.0 0.00 0.00 0.00 98 1015.3
20260906120518 58 0 0.0 0.0 0.00 0.00 0.00 98 1015.2
20260906120034 57 0 0.0 0.0 0.00 0.00 0.00 98 1015.1
20260906115518 56 0 0.0 0.0 0.00 0.00 0.00 98 1015.1
20260906115016 56 0 0.0 0.0 0.00 0.00 0.00 97 1015.1
20260906114550 56 0 0.0 0.0 0.00 0.00 0.00 97 1015.0
20260906114016 56 0 0.0 0.0 0.00 0.00 0.00 97 1015.0
20260906113516 55 0 0.0 0.0 0.00 0.00 0.00 97 1015.0
20260906113045 55 0 0.0 0.0 0.00 0.00 0.00 97 1014.8
20260906112519 55 0 0.0 0.0 0.00 0.00 0.00 97 1014.9
20260906112017 55 0 0.0 0.0 0.00 0.00 0.00 97 1014.9
20260906111538 55 0 0.0 0.0 0.00 0.00 0.00 97 1014.9
20260906111016 55 0 0.0 0.0 0.00 0.00 0.00 97 1014.8
20260906110518 55 0 0.0 0.0 0.00 0.00 0.00 97 1014.6
20260906110033 55 0 0.0 0.0 0.00 0.00 0.00 96 1014.6
20260906105515 55 0 0.0 0.0 0.00 0.00 0.00 96 1014.6
20260906105021 55 0 0.0 0.0 0.00 0.00 0.00 96 1014.6
20260906104534 55 0 0.0 0.0 0.00 0.00 0.00 96 1014.3
20260906104017 55 0 0.0 0.0 0.00 0.00 0.00 96 1014.3
20260906103517 55 0 0.0 0.0 0.00 0.00 0.00 96 1014.3
20260906103036 55 0 0.0 0.0 0.00 0.00 0.00 96 1014.2
20260906102520 55 0 0.0 0.0 0.00 0.00 0.00 96 1014.1
20260906102018 56 0 0.0 0.0 0.00 0.00 0.00 96 1014.0
20260906101535 56 0 0.0 0.0 0.00 0.00 0.00 96 1014.0
20260906101017 56 0 0.0 0.0 0.00 0.00 0.00 96 1013.9
20260906100518 56 0 0.0 0.0 0.00 0.00 0.00 96 1013.7
20260906100034 56 0 0.0 0.0 0.00 0.00 0.00 96 1013.7
20260906095515 56 0 0.0 0.0 0.00 0.00 0.00 96 1013.7
20260906095015 56 0 0.0 0.0 0.00 0.00 0.00 96 1013.8
20260906094535 56 0 0.0 0.0 0.00 0.00 0.00 96 1013.8
20260906094016 56 0 0.0 0.0 0.00 0.00 0.00 96 1013.7
20260906093520 57 0 0.0 0.0 0.00 0.00 0.00 96 1013.6
20260906093036 57 0 0.0 0.0 0.00 0.00 0.00 96 1013.5
20260906092516 57 0 0.0 0.0 0.00 0.00 0.00 96 1013.4
20260906092018 57 0 0.0 0.0 0.00 0.00 0.00 96 1013.3
20260906091535 57 0 0.0 0.0 0.00 0.00 0.00 96 1013.3
20260906091016 58 0 0.0 0.0 0.00 0.00 0.00 96 1013.2
20260906090515 58 0 0.0 0.0 0.00 0.00 0.00 96 1013.1
20260906090035 58 0 0.0 0.0 0.00 0.00 0.00 96 1013.1
20260906085521 58 0 0.0 0.0 0.00 0.00 0.00 96 1013.1
20260906085017 58 0 0.0 0.0 0.00 0.00 0.00 96 1013.1
20260906084534 58 0 0.0 0.0 0.00 0.00 0.00 96 1013.1
20260906084018 58 0 0.0 0.0 0.00 0.00 0.00 96 1013.1
20260906083518 59 0 0.0 0.0 0.00 0.00 0.00 96 1013.1
20260906083033 59 0 0.0 0.0 0.00 0.00 0.00 96 1013.2
20260906082516 59 0 0.0 0.0 0.00 0.00 0.00 96 1013.0
20260906082016 59 0 0.0 0.0 0.00 0.00 0.00 96 1012.9
20260906081543 60 0 0.0 0.0 0.00 0.00 0.00 96 1012.9
20260906081018 60 0 0.0 0.0 0.00 0.00 0.00 96 1012.8
20260906080519 60 0 0.0 0.0 0.00 0.00 0.00 96 1012.8
20260906080034 60 0 0.0 0.0 0.00 0.00 0.00 96 1012.8
20260906075517 60 0 0.0 0.0 0.00 0.00 0.00 96 1012.8
20260906075018 60 0 0.0 0.0 0.00 0.00 0.00 96 1012.8
20260906074548 60 0 0.0 0.0 0.00 0.00 0.00 96 1012.8
20260906074016 60 0 0.0 0.0 0.00 0.00 0.00 96 1012.9
20260906073518 60 0 0.0 0.0 0.00 0.00 0.00 96 1012.8
20260906073036 60 0 0.0 0.0 0.00 0.00 0.00 96 1012.8
20260906072518 60 0 0.0 0.0 0.00 0.00 0.00 96 1012.7
20260906072017 60 0 0.0 0.0 0.00 0.00 0.00 97 1012.7
20260906071537 60 0 0.0 0.0 0.00 0.00 0.00 96 1012.7
20260906071022 60 0 0.0 0.0 0.00 0.00 0.00 97 1012.8
20260906070520 61 0 0.0 0.0 0.00 0.00 0.00 97 1012.8
20260906070039 61 0 0.0 0.0 0.00 0.00 0.00 97 1012.8
20260906065518 61 0 0.0 0.0 0.00 0.00 0.00 97 1012.8
20260906065021 61 0 0.0 0.0 0.00 0.00 0.00 97 1012.7
20260906064534 61 0 0.0 0.0 0.00 0.00 0.00 97 1012.8
20260906064017 61 0 0.0 0.0 0.00 0.00 0.00 97 1012.9
20260906063517 61 0 0.0 0.0 0.00 0.00 0.00 97 1012.9
20260906063035 61 0 0.0 0.0 0.00 0.00 0.00 97 1012.9
20260906062515 61 0 0.0 0.0 0.00 0.00 0.00 97 1012.9
20260906062017 60 0 0.0 0.0 0.00 0.00 0.00 97 1012.8
20260906061536 60 0 0.0 0.0 0.00 0.00 0.00 97 1012.9
20260906061015 60 0 0.0 0.0 0.00 0.00 0.00 97 1013.0
20260906060518 60 0 0.0 0.0 0.00 0.00 0.00 97 1013.1
20260906060036 60 0 0.0 0.0 0.00 0.00 0.00 96 1013.0
20260906055518 60 0 0.0 0.0 0.00 0.00 0.00 96 1013.1
20260906055018 60 0 0.0 0.0 0.00 0.00 0.00 96 1013.0
20260906054538 60 0 0.0 0.0 0.00 0.00 0.00 96 1013.1
20260906054016 60 0 0.0 0.0 0.00 0.00 0.00 96 1013.1
20260906053516 60 0 0.0 0.0 0.00 0.00 0.00 96 1013.1
20260906053035 60 0 0.0 0.0 0.00 0.00 0.00 96 1013.2
20260906052518 60 0 0.0 0.0 0.00 0.00 0.00 96 1013.4
20260906052020 60 0 0.0 0.0 0.00 0.00 0.00 96 1013.3
20260906051534 59 0 0.0 0.0 0.00 0.00 0.00 96 1013.3
20260906051018 59 0 0.0 0.0 0.00 0.00 0.00 96 1013.2
20260906050516 59 0 0.0 0.0 0.00 0.00 0.00 96 1013.1
20260906050044 59 0 0.0 0.0 0.00 0.00 0.00 96 1013.1
20260906045519 59 0 0.0 0.0 0.00 0.00 0.00 95 1013.1
20260906045017 59 0 0.0 0.0 0.00 0.00 0.00 95 1013.2
20260906044538 59 0 0.0 0.0 0.00 0.00 0.00 95 1013.1
20260906044021 59 0 0.0 0.0 0.00 0.00 0.00 95 1013.1
20260906043521 60 0 0.0 0.0 0.00 0.00 0.00 95 1013.2
20260906043038 60 0 0.0 0.0 0.00 0.00 0.00 96 1013.1
20260906042515 60 0 0.0 0.0 0.00 0.00 0.00 96 1013.1
20260906042018 60 0 0.0 0.0 0.00 0.00 0.00 95 1013.1
20260906041536 60 0 0.0 0.0 0.00 0.00 0.00 96 1013.1
20260906041018 60 0 0.0 0.0 0.00 0.00 0.00 96 1013.1
20260906040518 60 0 0.0 0.0 0.00 0.00 0.00 95 1013.0
20260906040039 60 0 0.0 0.0 0.00 0.00 0.00 95 1013.1
20260906035515 60 0 0.0 0.0 0.00 0.00 0.00 95 1013.0
20260906035017 60 0 0.0 0.0 0.00 0.00 0.00 95 1012.9
20260906034535 60 0 0.0 0.0 0.00 0.00 0.00 94 1012.9
20260906034019 60 0 0.0 0.0 0.00 0.00 0.00 95 1013.0
20260906033518 60 0 0.0 0.0 0.00 0.00 0.00 95 1013.0
20260906033044 60 0 0.0 0.0 0.00 0.00 0.00 95 1013.0
20260906032515 60 0 0.0 0.0 0.00 0.00 0.00 95 1012.9
20260906032016 60 0 0.0 0.0 0.00 0.00 0.00 94 1013.0
20260906031544 60 0 0.0 0.0 0.00 0.00 0.00 94 1012.9
20260906031018 60 0 0.0 0.0 0.00 0.00 0.00 94 1012.8
20260906030519 60 0 0.0 0.0 0.00 0.00 0.00 94 1012.8
20260906030035 61 0 0.0 0.0 0.00 0.00 0.00 94 1012.8
20260906025518 61 0 0.0 0.0 0.00 0.00 0.00 93 1012.8
20260906025021 61 0 0.0 0.0 0.00 0.00 0.00 94 1012.8
20260906024535 61 0 0.0 0.0 0.00 0.00 0.00 94 1012.7
20260906024021 61 0 0.0 0.0 0.00 0.00 0.00 94 1012.7
20260906023518 62 0 0.0 0.0 0.00 0.00 0.00 94 1012.6
20260906023037 62 0 0.0 0.0 0.00 0.00 0.00 93 1012.7
20260906022518 62 0 0.0 0.0 0.00 0.00 0.00 93 1012.7
20260906022015 62 0 0.0 0.0 0.00 0.00 0.00 93 1012.6
20260906021536 62 0 0.0 0.0 0.00 0.00 0.00 93 1012.7
20260906021017 62 0 0.0 0.0 0.00 0.00 0.00 92 1012.8
20260906020518 63 0 0.0 0.0 0.00 0.00 0.00 92 1012.7
20260906020039 63 0 0.0 0.0 0.00 0.00 0.00 92 1012.8
20260906015518 63 0 0.0 0.0 0.00 0.00 0.00 92 1012.7
20260906015018 63 0 0.0 0.0 0.00 0.00 0.00 92 1012.4
20260906014537 63 0 0.0 0.0 0.00 0.00 0.00 92 1012.5
20260906014016 63 0 0.0 0.0 0.00 0.00 0.00 92 1012.5
20260906013516 64 0 0.0 0.0 0.00 0.00 0.00 91 1012.5
20260906013034 64 0 0.0 0.0 0.00 0.00 0.00 91 1012.5
20260906012522 64 0 0.0 0.0 0.00 0.00 0.00 91 1012.5
20260906012017 64 0 0.0 0.0 0.00 0.00 0.00 91 1012.3
20260906011539 64 0 0.0 0.0 0.00 0.00 0.00 91 1012.2
20260906011016 65 0 0.0 0.0 0.00 0.00 0.00 90 1012.2
20260906010519 65 0 0.0 0.0 0.00 0.00 0.00 90 1012.2
20260906010039 65 0 0.0 0.0 0.00 0.00 0.00 90 1012.2
20260906005516 65 0 0.0 0.0 0.00 0.00 0.00 89 1012.2
20260906005020 66 0 0.0 0.0 0.00 0.00 0.00 89 1012.0
20260906004537 66 0 0.0 0.0 0.00 0.00 0.00 88 1011.9
20260906004016 66 0 0.0 0.0 0.00 0.00 0.00 88 1011.8
20260906003518 67 0 0.0 0.0 0.00 0.00 0.00 88 1011.7
20260906003036 67 0 0.0 0.0 0.00 0.00 0.00 87 1011.7
20260906002515 67 0 0.0 0.0 0.00 0.00 0.00 86 1011.6
20260906002019 67 0 0.0 0.0 0.00 0.00 0.00 86 1011.6
20260906001535 67 0 0.0 0.0 0.00 0.00 0.00 85 1011.7
20260906001015 68 0 0.0 0.0 0.00 0.00 0.00 85 1011.8
20260906000519 68 0 0.0 0.0 0.00 0.00 0.00 85 1011.7
20260906000034 68 0 0.0 0.0 0.00 0.00 0.00 85 1011.7
20260905235517 68 0 0.0 0.0 0.00 0.00 0.00 84 1011.5
20260905235020 69 0 0.0 0.0 0.00 0.00 0.00 84 1011.4
20260905234534 69 0 0.0 0.0 0.00 0.00 0.00 84 1011.4
20260905234019 69 0 0.0 0.0 0.00 0.00 0.00 83 1011.4
20260905233518 69 0 0.0 0.0 0.00 0.00 0.00 82 1011.3
20260905233042 70 0 0.0 0.0 0.00 0.00 0.00 80 1011.3
20260905232516 70 0 0.0 0.0 0.00 0.00 0.00 79 1011.5
20260905232016 70 0 0.0 1.0 0.00 0.00 0.00 80 1011.4
20260905231536 71 0 0.0 1.0 0.00 0.00 0.00 79 1011.5
20260905231017 71 0 0.0 2.0 0.00 0.00 0.00 78 1011.5
20260905230515 71 0 0.0 3.0 0.00 0.00 0.00 76 1011.5
20260905230045 71 333 0.0 3.0 0.00 0.00 0.00 76 1011.5
20260905225519 71 333 0.0 4.0 0.00 0.00 0.00 76 1011.5
20260905225021 71 0 0.0 4.0 0.00 0.00 0.00 78 1011.4
20260905224549 72 0 0.0 3.0 0.00 0.00 0.00 75 1011.3
20260905224019 72 318 0.0 3.0 0.00 0.00 0.00 74 1011.4
20260905223518 72 0 0.0 4.0 0.00 0.00 0.00 77 1011.3
20260905223035 73 318 0.0 4.0 0.00 0.00 0.00 77 1011.2
20260905222518 73 318 1.0 4.0 0.00 0.00 0.00 75 1011.2
20260905222018 73 0 0.0 3.0 0.00 0.00 0.00 78 1011.1
20260905221539 74 0 0.0 0.0 0.00 0.00 0.00 79 1011.0
20260905221019 74 0 0.0 0.0 0.00 0.00 0.00 79 1010.9
20260905220517 74 0 0.0 0.0 0.00 0.00 0.00 77 1010.8
20260905220040 75 0 0.0 1.0 0.00 0.00 0.00 76 1010.7
20260905215518 75 0 0.0 3.0 0.00 0.00 0.00 76 1010.8
20260905215015 75 0 0.0 3.0 0.00 0.00 0.00 72 1010.9
20260905214535 76 0 0.0 2.0 0.00 0.00 0.00 71 1010.9
20260905214018 76 318 0.0 2.0 0.00 0.00 0.00 70 1010.8
20260905213516 75 0 0.0 2.0 0.00 0.00 0.00 70 1010.7
20260905213035 74 0 0.0 0.0 0.00 0.00 0.00 76 1010.7
20260905212516 74 0 0.0 0.0 0.00 0.00 0.00 76 1010.6